Weather History for KFST - October, 2011

Change the Weather History Date:

Sunday, October 30, 2011

  Actual Average Record
Temperature  
Mean Temperature 64 °F -  
Max Temperature 75 °F 71 °F 88 °F (2010)
Min Temperature 52 °F 49 °F 46 °F (2002)
Degree Days  
Heating Degree Days 2    
Growing Degree Days 14 (Base 50)    
Moisture  
Dew Point 31 °F    
Average Humidity 33    
Maximum Humidity 47    
Minimum Humidity 18    
Precipitation  
Precipitation 0.00 in - - ()
Sea Level Pressure  
Sea Level Pressure 30.02 in    
Wind  
Wind Speed 10 mph (West)    
Max Wind Speed 16 mph    
Max Gust Speed 24 mph    
Visibility 10 miles    
Events      
Averages and records for this station are not official NWS values.
T = Trace of Precipitation, MM = Missing Value Source: NWS Daily Summary

Daily Weather History Graph

Daily Weather History Graph

Search for Another Location

Airport or City:

Trip Planner

Search our weather history database for the weather conditions in past years. The results will help you decide how hot, cold, wet, or windy it might be!

Date:

Astronomy

Oct. 30, 2011 Rise Set
Actual Time 8:05 AM CDT 7:05 PM CDT
Civil Twilight 7:40 AM CDT 7:30 PM CDT
Nautical Twilight 7:11 AM CDT 7:58 PM CDT
Astronomical Twilight 6:43 AM CDT 8:26 PM CDT
Moon 12:14 PM CDT (10/30) 10:47 PM CDT (10/30)
Length of Visible Light 11h 49m
Length of Day
11h 00m
Waxing Crescent, 20% of the Moon is Illuminated
Oct 30
Waxing Crescent
Nov 2
First Quarter
Nov 10
Full
Nov 18
Last Quarter
Nov 25
New

Hourly Weather History & Observations

Time (CDT) Temp. Dew Point Humidity Pressure Visibility Wind Dir Wind Speed Gust Speed Precip Events Conditions
12:53 AM 52.0 °F 32.0 °F 47% 29.94 in 10.0 mi South 9.2 mph - N/A   Clear
1:53 AM 55.9 °F 33.1 °F 42% 29.93 in 10.0 mi SW 13.8 mph - N/A   Clear
2:53 AM 55.9 °F 33.1 °F 42% 29.93 in 10.0 mi SW 11.5 mph - N/A   Clear
3:53 AM 55.0 °F 33.1 °F 43% 29.93 in 10.0 mi SW 9.2 mph - N/A   Clear
4:53 AM 54.0 °F 32.0 °F 43% 29.92 in 10.0 mi SW 9.2 mph - N/A   Clear
5:53 AM 53.1 °F 32.0 °F 45% 29.93 in 10.0 mi SW 11.5 mph - N/A   Clear
7:53 AM 53.1 °F 32.0 °F 45% 29.97 in 10.0 mi SW 11.5 mph - N/A   Clear
8:53 AM 52.0 °F 30.9 °F 45% 30.01 in 10.0 mi Calm Calm - N/A   Clear
9:53 AM 59.0 °F 32.0 °F 36% 30.05 in 10.0 mi NW 6.9 mph - N/A   Clear
10:53 AM 66.0 °F 33.1 °F 29% 30.06 in 10.0 mi NW 16.1 mph - N/A   Clear
11:53 AM 69.1 °F 30.0 °F 23% 30.06 in 10.0 mi WNW 15.0 mph 21.9 mph N/A   Clear
12:53 PM 72.0 °F 28.0 °F 20% 30.06 in 10.0 mi NW 13.8 mph 24.2 mph N/A   Clear
1:53 PM 73.0 °F 28.9 °F 20% 30.03 in 10.0 mi WNW 13.8 mph 21.9 mph N/A   Clear
2:53 PM 75.0 °F 28.9 °F 18% 30.01 in 10.0 mi WNW 15.0 mph 20.7 mph N/A   Clear
3:53 PM 75.9 °F 30.0 °F 19% 30.00 in 10.0 mi NW 15.0 mph 21.9 mph N/A   Clear
4:53 PM 75.0 °F 28.9 °F 18% 30.01 in 10.0 mi NNW 11.5 mph - N/A   Clear
5:53 PM 75.0 °F 28.9 °F 18% 30.02 in 10.0 mi North 10.4 mph - N/A   Clear
6:53 PM 71.1 °F 30.0 °F 22% 30.04 in 10.0 mi North 6.9 mph - N/A   Clear
7:53 PM 64.0 °F 30.0 °F 28% 30.08 in 10.0 mi NNE 5.8 mph - N/A   Clear
9:53 PM 59.0 °F 32.0 °F 36% 30.14 in 10.0 mi East 5.8 mph - N/A   Clear
10:53 PM 59.0 °F 34.0 °F 39% 30.14 in 10.0 mi ESE 5.8 mph - N/A   Clear
11:53 PM 57.0 °F 35.1 °F 44% 30.15 in 10.0 mi SE 6.9 mph - N/A   Clear